[[{"header":{"parameterUnit":"m.s-1","parameterCategory":1,"la1":30.2992,"la2":30.254,"lo1":-89.0895,"lo2":-89.0443,"dy":0.0025,"dx":0.0025,"nx":19,"ny":19,"refTime":"2026-04-02T21:00:00:Z","depth":0,"parameterNumber":2,"parameterNumberName":"U-component_of_WINDS"},"data":[0,0,0,-4.3993,-4.3993,-4.4001,-4.4001,-4.4036,-4.4036,0,0,0,0,0,0,0,0,0,0,0,-4.4003,-4.4004,-4.3993,-4.3993,-4.4001,-4.4001,-4.4036,-4.4036,0,0,0,0,0,0,0,0,0,0,0,-4.4003,-4.4003,-4.4004,-4.3993,-4.4001,-4.4001,-4.4035,-4.4021,0,0,0,0,0,0,0,0,0,0,-4.4009,-4.403,-4.4003,-4.4004,-4.3993,-4.4002,-4.4001,-4.402,-4.4022,-4.4042,0,-4.4061,0,-4.4049,-4.404,-4.404,0,0,0,-4.3984,-4.4029,-4.402,-4.4004,-4.3994,-4.4002,-4.3995,-4.4021,-4.4023,-4.4044,-4.4061,-4.4062,-4.405,-4.404,-4.404,-4.4183,-4.4184,0,0,-4.3983,-4.4011,-4.4018,-4.4022,-4.4021,-4.3995,-4.3995,-4.4022,-4.4043,-4.4062,-4.4063,-4.4051,-4.4041,-4.4041,-4.4181,-4.4183,0,0,0,-4.3988,-4.4012,-4.4001,-4.4021,-4.4021,-4.3995,-4.3996,-4.4041,-4.4036,-4.4063,-4.4051,-4.4041,-4.4042,-4.418,-4.4182,-4.4262,0,0,0,-4.3988,-4.4014,-4.4001,-4.4019,-4.4021,-4.4031,-4.4016,-4.4034,-4.4036,-4.4051,-4.4041,-4.4042,-4.4179,-4.4181,-4.4257,-4.4294,0,0,0,-4.3998,-4.4015,-4.4021,-4.402,-4.4025,-4.403,-4.4025,-4.4034,-4.4029,-4.404,-4.4042,-4.4178,-4.4181,-4.4253,-4.4287,-4.4338,0,0,0,-4.4017,-4.4092,-4.4023,-4.4102,-4.4025,-4.408,-4.4025,-4.4065,-4.4084,-4.4041,-4.4179,-4.4182,-4.4251,-4.4282,-4.4334,-4.4385,-4.4409,0,0,-4.4127,-4.4107,-4.4151,-4.4089,-4.4163,-4.4076,-4.4163,-4.4154,-4.413,-4.4167,-4.417,-4.4259,-4.4286,-4.4337,-4.4542,-4.4561,0,0,0,-4.4196,-4.4228,-4.4242,-4.4261,-4.4256,-4.4255,-4.4231,-4.4228,-4.4258,-4.4155,-4.4292,-4.4307,-4.4336,-4.4359,-4.4376,-4.4398,-4.4194,-4.4194,-4.4194,-4.4389,-4.4355,-4.4427,-4.4394,-4.4415,-4.4389,-4.4402,-4.4394,-4.4354,-4.4388,-4.4397,-4.4525,-4.4553,-4.4565,-4.4589,-4.4424,-4.4424,-4.4424,-4.4425,-4.4545,-4.4584,-4.4532,-4.4581,-4.4546,-4.4588,-4.4569,-4.454,-4.4574,-4.4515,-4.4538,-4.4473,-4.4588,-4.4607,-4.443,-4.4429,-4.4429,-4.4428,-4.4428,-4.4665,-4.4678,-4.4674,-4.47,-4.4724,-4.469,-4.4726,-4.4694,-4.4663,-4.4687,-4.4693,-4.4691,-4.4684,-4.4693,-4.4693,-4.4694,-4.4694,-4.4694,-4.4695,-4.4789,-4.4783,-4.4816,-4.482,-4.4829,-4.4837,-4.4816,-4.4824,-4.4825,-4.4798,-4.4798,-4.4754,-4.4606,-4.4568,-4.4701,-4.47,-4.4699,-4.4699,-4.4698,-4.4954,-4.4913,-4.4964,-4.4974,-4.4977,-4.5003,-4.4963,-4.4983,-4.4986,-4.5005,-4.4958,-4.4855,-4.483,-4.4817,-4.4785,-4.4966,-4.4966,-4.4966,-4.4966,-4.5053,-4.5039,-4.5085,-4.5102,-4.5116,-4.5085,-4.5147,-4.5133,-4.5112,-4.5111,-4.5082,-4.5038,-4.5026,-4.5008,-4.4991,-4.496,-4.5182,-4.5182,-4.5182,-4.5152,-4.5138,-4.5195,-4.5173,-4.5175,-4.5177,-4.5233,-4.5256,-4.5224,-4.519,-4.511,-4.5101,-4.503,-4.5009,-4.4969,-4.4942,-4.4885,0,0]},{"header":{"parameterUnit":"m.s-1","parameterCategory":1,"la1":30.2992,"la2":30.254,"lo1":-89.0895,"lo2":-89.0443,"dy":0.0025,"dx":0.0025,"nx":19,"ny":19,"refTime":"2026-04-02T21:00:00:Z","depth":0,"parameterNumber":3,"parameterNumberName":"V-component_of_WINDS"},"data":[0,0,0,2.8692,2.8694,2.8768,2.8769,2.884,2.8841,0,0,0,0,0,0,0,0,0,0,0,2.8657,2.8657,2.8692,2.8694,2.8768,2.8769,2.884,2.8841,0,0,0,0,0,0,0,0,0,0,0,2.8657,2.8657,2.8657,2.8694,2.8768,2.8769,2.884,2.8792,0,0,0,0,0,0,0,0,0,0,2.8723,2.8678,2.8657,2.8657,2.8694,2.8768,2.8769,2.879,2.8795,2.8797,0,2.8796,0,2.8819,2.8844,2.8844,0,0,0,2.8703,2.8674,2.8706,2.8657,2.8695,2.8768,2.8737,2.8793,2.8799,2.8803,2.8797,2.88,2.8821,2.8844,2.8845,2.8828,2.8828,0,0,2.8699,2.8663,2.8702,2.8709,2.8698,2.8735,2.874,2.8797,2.8787,2.8797,2.8803,2.8822,2.8845,2.8845,2.8829,2.8828,0,0,0,2.8681,2.866,2.8691,2.8706,2.8721,2.8737,2.8742,2.8785,2.8798,2.8803,2.8823,2.8845,2.8846,2.8829,2.8828,2.877,0,0,0,2.8679,2.8649,2.8689,2.8667,2.872,2.8754,2.8728,2.8794,2.8802,2.8822,2.8845,2.8846,2.883,2.8829,2.8773,2.8748,0,0,0,2.8657,2.8647,2.8653,2.8665,2.8696,2.8754,2.8771,2.8797,2.8813,2.8844,2.8846,2.883,2.8829,2.8775,2.8752,2.8734,0,0,0,2.8622,2.8598,2.8652,2.8632,2.8695,2.8717,2.8771,2.8789,2.8808,2.8845,2.883,2.8828,2.8776,2.8755,2.8737,2.8713,2.87,0,0,2.8572,2.8591,2.8582,2.8632,2.8636,2.8709,2.8704,2.8755,2.8789,2.8813,2.8813,2.8772,2.8753,2.8735,2.8637,2.8626,0,0,0,2.8554,2.8548,2.8556,2.8575,2.8614,2.8647,2.8703,2.8722,2.8744,2.8795,2.8761,2.8751,2.8742,2.8732,2.8723,2.8718,2.8822,2.8822,2.8823,2.843,2.8478,2.8468,2.8525,2.8542,2.8601,2.8619,2.8655,2.8696,2.8687,2.8695,2.863,2.8617,2.8611,2.8605,2.8685,2.8685,2.8685,2.8685,2.8362,2.8361,2.8419,2.843,2.848,2.8489,2.8545,2.8574,2.8589,2.8627,2.8622,2.866,2.8597,2.8595,2.8681,2.8682,2.8682,2.8682,2.8683,2.8287,2.8296,2.8321,2.8353,2.8373,2.8431,2.8444,2.8488,2.853,2.8524,2.8538,2.8539,2.8546,2.8527,2.8527,2.8527,2.8527,2.8527,2.8526,2.82,2.8231,2.8237,2.8279,2.8297,2.8327,2.8387,2.8406,2.8438,2.8469,2.847,2.8512,2.8582,2.8599,2.8523,2.8524,2.8524,2.8525,2.8525,2.8115,2.8142,2.8152,2.8171,2.8224,2.8241,2.8298,2.8333,2.8354,2.8359,2.8403,2.8448,2.847,2.8477,2.8492,2.8393,2.8393,2.8393,2.8393,2.8053,2.8069,2.8091,2.8118,2.8149,2.8202,2.8211,2.8257,2.8309,2.8325,2.8346,2.8369,2.8374,2.8393,2.8402,2.8417,2.8301,2.8301,2.8301,2.8004,2.8026,2.8025,2.8078,2.8123,2.816,2.8171,2.8199,2.8262,2.8298,2.8339,2.8343,2.8381,2.839,2.8427,2.8441,2.8468,0,0]}]]